Simultaneous Nadir Overpasses (SNOs) Predictions

Prediction of SNOs between METOP-B and NOAA-19 Satellite Orbit:

Table of predicted SNOs for the next 14.0 days since TLE Epoch: 9/20/2019
Index Date (METOP-B) Time (METOP-B) Lat,Lon (METOP-B) SZA (METOP-B ) Date (NOAA-19) Time (NOAA-19) Lat,Lon (NOAA-19) SZA (NOAA-19 ) Distance(km) Time Diff (sec)
1 10/01/2019 03:55:07 -79.55, -40.84 96.79 10/01/2019 03:53:55 -79.53, -40.77 96.83 2.55 72
2 10/01/2019 04:45:47 79.54, 126.43 83.22 10/01/2019 04:44:56 79.54, 126.37 83.20 1.24 51
3 10/01/2019 05:36:29 -79.54, -66.30 96.79 10/01/2019 05:35:56 -79.54, -66.34 96.80 0.90 33
4 10/01/2019 06:27:09 79.53, 100.98 83.22 10/01/2019 06:26:56 79.52, 101.08 83.22 2.38 13
5 10/01/2019 07:17:51 -79.52, -91.75 96.78 10/01/2019 07:17:56 -79.52, -91.63 96.78 2.67 5
6 10/01/2019 08:08:31 79.51, 75.52 83.23 10/01/2019 08:08:57 79.53, 75.51 83.25 1.56 26
7 10/01/2019 08:59:13 -79.51,-117.21 96.77 10/01/2019 08:59:57 -79.52,-117.19 96.74 1.79 44
8 10/01/2019 09:49:53 79.50, 50.06 83.23 10/01/2019 09:50:57 79.51, 50.22 83.27 3.36 64




NCC Satellite Simultaneous Nadir Overpasses (SNOs) Prediction Service
